DG7FDL-13 Weather Reports


time (UTC)temp
F
wind
direction
speed
knots
gust
knots
rain 1hr
in
rain 24hr
in
rain mn
in
humidity
%
barometer
mb
20260507041031 48 0.0 0.9 0.00 0.01 0.00 96 1010.3
20260507035314 49 0.0 0.9 0.00 0.01 0.00 97 1010.3
20260507034222 49 0.0 1.7 0.00 0.01 0.00 96 1010.2
20260507033158 49 0.0 0.9 0.00 0.01 0.00 96 1010.2
20260507032142 49 0.0 0.0 0.00 0.02 0.00 96 1010.0
20260507031119 49 0.0 0.9 0.00 0.02 0.00 96 1010.1
20260507030142 48 0.0 0.9 0.00 0.02 0.00 96 1010.0
20260507025118 48 0.0 1.7 0.00 0.02 0.00 97 1010.0
20260507024231 49 0.0 0.9 0.00 0.04 0.00 97 1010.0
20260507022142 49 0.0 0.9 0.00 0.05 0.00 98 1010.0
20260507021119 48 0.0 1.7 0.00 0.07 0.00 99 1010.0
20260507015342 49 0.0 1.7 0.00 0.09 0.00 99 1009.9
20260507013519 49 0 0.9 1.7 0.00 0.11 0.00 99 1009.7
20260507012202 49 0.0 0.9 0.00 0.12 0.00 100 1009.6
20260507011138 49 0.0 0.9 0.00 0.12 0.00 99 1009.6
20260507010142 49 0.0 0.0 0.00 0.12 0.00 97 1009.6
20260507005031 49 0.0 0.9 0.00 0.12 0.00 98 1009.6
20260507004026 49 0.0 0.0 0.00 0.12 0.00 97 1009.4
20260507003023 49 0 0.9 4.3 0.00 0.12 0.00 97 1009.5
20260507001919 50 0.0 1.7 0.00 0.12 0.00 97 1009.5
20260507000846 50 0.0 0.0 0.00 0.12 0.00 96 1009.4
20260506235403 50 0.0 1.7 0.00 0.12 0.00 95 1009.3
20260506234406 50 0.0 0.0 0.00 0.12 0.00 95 1009.1
20260506233246 50 0.0 0.9 0.00 0.12 0.00 94 1009.3
20260506232319 51 0.0 0.0 0.00 0.12 0.00 94 1009.1
20260506231207 51 0.0 0.9 0.00 0.12 0.00 93 1009.0
20260506230055 51 0.0 0.9 0.00 0.12 0.00 93 1008.9
20260506223958 51 0.0 0.0 0.00 0.12 0.00 92 1008.8
20260506222854 51 0.0 0.0 0.00 0.12 0.00 92 1008.7
20260506221919 51 0.0 0.0 0.00 0.13 0.00 92 1008.7
20260506221119 51 0.0 1.7 0.00 0.13 0.00 92 1008.8
20260506215207 51 0 0.9 1.7 0.00 0.13 0.13 92 1008.6
20260506214143 51 0.0 0.9 0.00 0.14 0.13 91 1008.6
20260506213139 51 0.0 0.0 0.00 0.14 0.13 91 1008.5
20260506212232 51 0.0 0.9 0.00 0.15 0.13 91 1008.6
20260506211139 51 0.0 1.7 0.00 0.15 0.13 90 1008.4
20260506210142 52 0.0 0.0 0.00 0.18 0.13 90 1008.5
20260506203920 52 0.0 0.0 0.00 0.19 0.13 91 1008.4
20260506202943 52 0 0.9 1.7 0.00 0.20 0.13 92 1008.4
20260506201852 52 0.0 0.0 0.00 0.21 0.13 93 1008.3
20260506200915 52 0 0.9 1.7 0.00 0.24 0.13 94 1008.2
20260506195031 52 0.0 1.7 0.00 0.25 0.13 94 1008.1
20260506194006 52 0.0 1.7 0.00 0.26 0.13 94 1008.0
20260506193120 52 0.0 0.9 0.00 0.28 0.13 93 1007.9
20260506192008 53 0.0 0.9 0.00 0.30 0.13 92 1007.8
20260506191051 53 0.0 0.9 0.00 0.32 0.13 92 1007.5
20260506185003 54 0 0.0 1.7 0.00 0.41 0.13 92 1007.0
20260506183919 54 0.0 0.9 0.00 0.47 0.13 92 1006.8
20260506183051 54 0 0.9 1.7 0.00 0.54 0.13 92 1006.7
20260506181938 55 0.0 1.7 0.00 0.59 0.13 92 1006.7
20260506181003 55 0 0.0 1.7 0.00 0.60 0.13 91 1006.5
20260506175159 56 0 0.9 1.7 0.00 0.61 0.13 86 1006.5
20260506174203 56 0 0.0 1.7 0.00 0.63 0.13 86 1006.3
20260506173138 56 0 0.9 1.7 0.00 0.63 0.13 87 1006.2
20260506170223 57 0.0 0.9 0.00 0.63 0.13 84 1005.8
20260506165118 58 0 1.7 3.5 0.00 0.63 0.13 83 1005.7
20260506162942 60 0 0.9 1.7 0.00 0.63 0.13 77 1005.4
20260506162055 62 0 0.9 3.5 0.00 0.63 0.13 73 1005.3
20260506160846 63 0.0 0.9 0.00 0.63 0.13 66 1005.1
20260506154407 63 0.0 1.7 0.00 0.63 0.13 66 1005.2
20260506150944 64 0 1.7 2.6 0.00 0.63 0.13 62 1005.1
20260506145938 64 0 1.7 1.7 0.00 0.63 0.13 60 1005.2
20260506144943 65 0 1.7 3.5 0.00 0.63 0.13 59 1005.3
20260506143918 65 0 1.7 1.7 0.00 0.63 0.13 62 1005.2
20260506142806 63 0 1.7 2.6 0.00 0.63 0.13 61 1005.3
20260506141830 63 0 1.7 2.6 0.00 0.63 0.13 62 1005.3
20260506140807 63 0.0 1.7 0.00 0.63 0.13 64 1005.3
20260506135119 63 0.0 0.9 0.00 0.63 0.13 64 1005.3
20260506134143 64 0 1.7 3.5 0.00 0.63 0.13 62 1005.4
20260506133111 63 0 1.7 3.5 0.00 0.63 0.13 61 1005.5
20260506132018 63 0 1.7 2.6 0.00 0.63 0.13 63 1005.4
20260506131022 63 0 0.9 2.6 0.00 0.63 0.13 63 1005.5
20260506125918 63 0 0.9 1.7 0.00 0.63 0.13 64 1005.6
20260506125030 62 0 1.7 3.5 0.00 0.63 0.13 63 1005.5
20260506123919 62 0 0.9 1.7 0.00 0.63 0.13 62 1005.4
20260506123002 64 0 1.7 1.7 0.00 0.63 0.13 60 1005.4
20260506122049 64 0 1.7 2.6 0.00 0.63 0.13 60 1005.4
20260506120943 62 0 1.7 4.3 0.00 0.63 0.13 64 1005.5
20260506115219 62 0 1.7 2.6 0.00 0.63 0.13 66 1005.4
20260506114144 63 0 0.9 2.6 0.00 0.63 0.13 64 1005.4
20260506113120 62 0 1.7 2.6 0.00 0.63 0.13 72 1005.5
20260506112143 60 0 1.7 2.6 0.00 0.63 0.13 76 1005.6
20260506111208 61 0 1.7 3.5 0.00 0.63 0.13 71 1005.6
20260506110230 61 0 0.9 1.7 0.00 0.63 0.13 80 1005.7
20260506105207 59 0 2.6 4.3 0.00 0.63 0.13 82 1005.8
20260506102007 58 45 1.7 3.5 0.00 0.63 0.13 85 1005.9
20260506100807 59 45 1.7 2.6 0.00 0.63 0.13 88 1006.0
20260506095003 58 0 1.7 4.3 0.00 0.63 0.13 88 1005.9
20260506093919 58 0.0 1.7 0.00 0.63 0.13 89 1005.9
20260506092915 57 0.0 0.9 0.00 0.63 0.13 93 1005.8
20260506091910 57 0.0 0.0 0.00 0.63 0.13 95 1005.8
20260506090807 57 0 1.7 2.6 0.00 0.63 0.13 94 1005.7
20260506085851 57 45 1.7 4.3 0.00 0.63 0.13 92 1005.7
20260506083919 57 0.0 1.7 0.00 0.63 0.13 96 1005.5
20260506081851 56 0 1.7 3.5 0.00 0.63 0.13 98 1005.5
20260506080914 56 0.0 1.7 0.00 0.63 0.13 100 1005.4
20260506073227 56 0.0 0.0 0.00 0.63 0.13 1005.3
20260506071138 56 0.0 0.9 0.00 0.63 0.13 1005.4
20260506070250 56 0.0 0.0 0.00 0.63 0.13 1005.3
20260506062007 55 0.0 0.9 0.00 0.63 0.13 1005.3
20260506061031 55 0 0.9 1.7 0.00 0.63 0.13 1005.2
20260506060718 55 0 0.9 1.7 0.00 0.63 0.13 1005.2
20260506050943 54 0.0 0.0 0.01 0.63 0.13 1005.2
20260506044855 54 0.0 0.9 0.01 0.63 0.13 1005.2
20260506043850 54 0.0 0.9 0.01 0.63 0.13 1004.9
20260506042807 54 0.0 0.9 0.01 0.63 0.13 1005.1
20260506041831 54 0.0 1.7 0.02 0.63 0.13 1004.9